Voltar ao catálogo

BILSAT 1

AtivoCiênciaSSO
NORAD 27943·PAYLOAD·🇹🇷 Turkey

Lançado Sep 27, 2003 de Plesetsk Cosmodrome

Loading…

Próximas Passagens (próximas 24 horas)

TLE

AtualizadoSource: Space-Track

Época: Sep 13, 2026, 22:21 UTC

1 27943U 03042E   26256.93180664  .00000229  00000-0  49902-4 0  9993
2 27943  98.4055  69.3248 0012048  74.4873 285.7660 14.67109632227136

Acompanhe BILSAT 1 em tempo real com AllMySat

Download on the App Store